Kalamazoo, MI

6:30 AM EDT on September 15, 2019 (GMT -0400)
Kalamazoo-Battle Creek International

Weather History for KAZO - August, 2019

Change the Weather History Date:

Saturday, August 24, 2019

  Actual Average Record
Temperature  
Mean Temperature 64 °F 70 °F  
Max Temperature 78 °F 80 °F 101 °F (1948)
Min Temperature 49 °F 59 °F 41 °F (1927)
Degree Days  
Heating Degree Days 1 0  
Month to date heating degree days 1 0  
Since 1 June heating degree days 41 53  
Since 1 July heating degree days 1 5  
Cooling Degree Days 0 5  
Month to date cooling degree days 181 153  
Year to date cooling degree days 696 579  
Since 1 June cooling degree days 681 538  
Growing Degree Days 14 (Base 50)    
Moisture  
Dew Point 49 °F    
Average Humidity 63    
Maximum Humidity 89    
Minimum Humidity 36    
Precipitation  
Precipitation 0.00 in 0.13 in 3.76 in (1895)
Month to date precipitation 1.28 2.89  
Year to date precipitation 24.60 22.61  
Sea Level Pressure  
Sea Level Pressure 30.28 in    
Wind  
Wind Speed 4 mph (ENE)    
Max Wind Speed 12 mph    
Max Gust Speed 19 mph    
Visibility 10 miles    
Events      
T = Trace of Precipitation, MM = Missing Value Source: NWS Daily Summary

Daily Weather History Graph

Daily Weather History Graph

Search for Another Location

Airport or City:

Astronomy

Aug. 24, 2019 Rise Set
Actual Time 6:58 AM EDT 8:29 PM EDT
Civil Twilight 6:29 AM EDT 8:58 PM EDT
Nautical Twilight 5:53 AM EDT 9:34 PM EDT
Astronomical Twilight 5:16 AM EDT 10:11 PM EDT
Moon 12:49 AM EDT (8/24) 3:47 PM EDT (8/24)
Length of Visible Light 14h 29m
Length of Day
13h 30m
Last Quarter, 39% of the Moon is Illuminated
Aug 24
Last Quarter
Aug 30
New
Sep 5
First Quarter
Sep 14
Full
Sep 21
Last Quarter

Hourly Weather History & Observations

Time (EDT) Temp. Dew Point Humidity Pressure Visibility Wind Dir Wind Speed Gust Speed Precip Events Conditions
12:53 AM 55.9 °F 48.9 °F 77% 30.26 in 10.0 mi Calm Calm - N/A   Clear
1:53 AM 55.0 °F 48.9 °F 80% 30.27 in 10.0 mi Calm Calm - N/A   Clear
2:53 AM 54.0 °F 48.9 °F 83% 30.26 in 10.0 mi Calm Calm - N/A   Clear
3:53 AM 54.0 °F 48.0 °F 80% 30.28 in 10.0 mi Calm Calm - N/A   Clear
4:53 AM 52.0 °F 48.0 °F 86% 30.29 in 10.0 mi Calm Calm - N/A   Clear
5:53 AM 51.1 °F 48.0 °F 89% 30.32 in 10.0 mi Calm Calm - N/A   Clear
6:53 AM 50.0 °F 46.9 °F 89% 30.33 in 10.0 mi Calm Calm - N/A   Clear
7:53 AM 53.1 °F 48.9 °F 86% 30.33 in 10.0 mi NE 3.5 mph - N/A   Clear
8:53 AM 59.0 °F 50.0 °F 72% 30.34 in 10.0 mi NE 5.8 mph - N/A   Clear
9:53 AM 64.9 °F 51.1 °F 61% 30.33 in 10.0 mi NE 5.8 mph - N/A   Clear
10:53 AM 69.1 °F 48.0 °F 47% 30.33 in 10.0 mi ENE 10.4 mph - N/A   Clear
11:53 AM 71.1 °F 48.0 °F 44% 30.32 in 10.0 mi East 6.9 mph - N/A   Partly Cloudy
12:53 PM 72.0 °F 48.9 °F 44% 30.31 in 10.0 mi NE 9.2 mph - N/A   Scattered Clouds
1:53 PM 73.9 °F 48.9 °F 41% 30.28 in 10.0 mi Variable 5.8 mph - N/A   Scattered Clouds
2:53 PM 75.0 °F 48.9 °F 40% 30.27 in 10.0 mi Variable 4.6 mph - N/A   Scattered Clouds
3:53 PM 75.9 °F 48.9 °F 38% 30.25 in 10.0 mi ESE 6.9 mph - N/A   Clear
4:53 PM 77.0 °F 48.9 °F 37% 30.23 in 10.0 mi Variable 6.9 mph - N/A   Partly Cloudy
5:53 PM 75.9 °F 50.0 °F 40% 30.24 in 10.0 mi Variable 4.6 mph - N/A   Scattered Clouds
6:53 PM 75.0 °F 50.0 °F 41% 30.23 in 10.0 mi Variable 5.8 mph - N/A   Scattered Clouds
7:53 PM 72.0 °F 51.1 °F 48% 30.23 in 10.0 mi Calm Calm - N/A   Scattered Clouds
8:53 PM 66.0 °F 52.0 °F 60% 30.24 in 10.0 mi East 3.5 mph - N/A   Clear
9:53 PM 64.0 °F 51.1 °F 63% 30.25 in 10.0 mi East 4.6 mph - N/A   Clear
10:53 PM 62.1 °F 51.1 °F 67% 30.25 in 10.0 mi East 3.5 mph - N/A   Clear
11:53 PM 60.1 °F 51.1 °F 72% 30.25 in 10.0 mi ESE 3.5 mph - N/A   Clear